DW6536 Weather Reports


time (UTC)temp
C
wind
direction
speed
KPH
gust
KPH
rain 1hr
cm
rain 24hr
cm
rain mn
cm
humidity
%
barometer
mb
20260504221558 28 110 4.8 0.0 0.00 0.00 0.00 59 1007.1
20260504220108 28 145 3.2 0.0 0.00 0.00 0.00 58 1007.3
20260504214548 28 170 4.8 0.0 0.00 0.00 0.00 57 1007.3
20260504213050 27 125 4.8 0.0 0.00 0.00 0.00 60 1007.5
20260504211542 27 110 4.8 0.0 0.00 0.00 0.00 59 1008.0
20260504210041 27 180 4.8 0.0 0.00 0.00 0.00 61 1008.2
20260504204556 26 145 6.4 0.0 0.00 0.00 0.00 63 1008.5
20260504203038 26 222 3.2 0.0 0.00 0.00 0.00 61 1008.6
20260504201536 27 118 6.4 0.0 0.00 0.00 0.00 61 1009.0
20260504200042 27 193 4.8 0.0 0.00 0.00 0.00 60 1009.2
20260504194538 27 118 4.8 0.0 0.00 0.00 0.00 59 1009.6
20260504193031 27 185 4.8 0.0 0.00 0.00 0.00 60 1009.7
20260504191530 27 122 3.2 0.0 0.00 0.00 0.00 59 1009.8
20260504190030 27 170 3.2 0.0 0.00 0.00 0.00 62 1010.3
20260504184532 27 289 3.2 0.0 0.00 0.00 0.00 60 1010.3
20260504183021 26 216 4.8 0.0 0.00 0.00 0.00 63 1010.6
20260504181517 26 117 3.2 0.0 0.00 0.00 0.00 64 1011.1
20260504180017 26 170 3.2 0.0 0.00 0.00 0.00 62 1011.1
20260504174512 25 105 4.8 0.0 0.00 0.00 0.00 65 1011.4
20260504173010 23 231 3.2 0.0 0.00 0.00 0.00 68 1011.7
20260504171507 23 164 3.2 0.0 0.00 0.00 0.00 66 1012.1
20260504160106 23 243 3.2 0.0 0.00 0.00 0.00 68 1012.7
20260504081528 16 176 3.2 0.0 0.00 0.00 0.00 75 1013.2
20260504044545 18 131 1.6 0.0 0.00 0.00 0.00 65 1015.5
20260504043050 18 122 1.6 0.0 0.00 0.00 0.00 64 1015.7
20260504041545 18 135 0.0 0.0 0.00 0.00 0.00 62 1015.6
20260504040044 17 111 1.6 0.0 0.00 0.00 0.00 62 1015.8
20260504034543 18 140 0.0 0.0 0.00 0.00 0.00 60 1015.7
20260504033043 18 140 0.0 0.0 0.00 0.00 0.00 58 1015.6
20260504031542 18 141 0.0 0.0 0.00 0.00 0.00 57 1015.6
20260504030042 18 148 0.0 0.0 0.00 0.00 0.00 58 1015.7
20260504024544 18 148 0.0 0.0 0.00 0.00 0.00 57 1015.6
20260504023041 18 158 0.0 0.0 0.00 0.00 0.00 57 1015.5
20260504021540 18 133 0.0 0.0 0.00 0.00 0.00 56 1015.6
20260504020117 19 133 0.0 0.0 0.00 0.00 0.00 55 1015.5
20260504014554 20 133 0.0 0.0 0.00 0.00 0.00 54 1015.1
20260504013048 20 133 0.0 0.0 0.00 0.00 0.00 51 1015.0
20260504011539 21 141 0.0 0.0 0.00 0.00 0.00 48 1015.1
20260504010043 21 145 0.0 0.0 0.00 0.00 0.00 48 1015.1
20260504004553 22 148 1.6 0.0 0.00 0.00 0.00 45 1015.0
20260504003037 22 126 1.6 0.0 0.00 0.00 0.00 46 1015.0
20260504001548 23 172 1.6 0.0 0.00 0.00 0.00 45 1015.2
20260504000033 23 144 3.2 0.0 0.00 0.00 0.00 44 1015.5
20260503234534 23 207 1.6 0.0 0.00 0.00 0.00 43 1015.5
20260503233038 24 159 3.2 0.0 0.00 0.00 0.00 42 1015.7
20260503231533 24 131 1.6 0.0 0.00 0.00 0.00 44 1015.7
20260503230033 24 140 3.2 0.0 0.00 0.00 0.00 42 1015.5
20260503224529 25 124 4.8 0.0 0.00 0.00 0.00 41 1015.6
20260503223027 25 165 4.8 0.0 0.00 0.00 0.00 38 1016.0